Home   Weather   Friedrichshafen   Past weeks

Flag for Germany Past Weather in Friedrichshafen, Baden-Württemberg, Germany — Yesterday and Last 2 Weeks

Now
23 °F

Mostly cloudy.


Feels Like: 11 °F
Forecast: 20 / 25 °F
Wind: 14 mph from Northeast

Location: Friedrichshafen Airport

Current Time: Jan 17, 2017 at 8:07:37 am

Latest Report: Jan 17, 2017 at 7:20 am


Visibility: N/A

Pressure: 30.33 "Hg

Humidity: 86%

Dew Point: 19 °F

Location of FriedrichshafenLocation

Past Weather in Friedrichshafen — Graph

°F

Friedrichshafen Temperature Yesterday

Maximum temperature yesterday: 30 °F (at 11:50 am)
Minimum temperature yesterday: 21 °F (at 12:50 am)
Average temperature yesterday: 25 °F

High & Low Weather Summary for the Past Weeks

 TemperatureHumidityPressure
High43 °F (Jan 12, 12:50 pm)100% (Jan 2, 6:20 am)30.66 "Hg (Jan 2, 6:20 am)
Low5 °F (Jan 7, 5:50 am)63% (Jan 6, 2:50 pm)29.47 "Hg (Jan 13, 12:20 am)
Average29 °F87%30.15 "Hg
* Reported Jan 2 6:20 am — Jan 17 6:50 am, Friedrichshafen, Weather by CustomWeather, © 2017

Note: Actual official high and low records may vary slightly from our data, if they occured in-between our weather recording intervals... More about our weather records

Advertising

Friedrichshafen Weather History for the Previous 24 Hours

Scroll right to see more
 ConditionsComfort  
Time TempWeatherWind HumidityBarometerVisibility
6:50 am
Tue, Jan 17
25 °FSnow flurries. Mostly cloudy.14 mph80%30.30 "HgN/A
6:20 am25 °FOvercast.15 mph80%30.30 "HgN/A
5:50 am25 °FOvercast.14 mph86%30.30 "HgN/A
5:20 am25 °FSnow flurries. Overcast.12 mph86%30.27 "HgN/A
4:50 am25 °FLight snow. Passing clouds.12 mph86%30.27 "HgN/A
4:20 am25 °FLight snow. Mostly cloudy.12 mph86%30.27 "HgN/A
3:50 am25 °FLight snow. Partly cloudy.12 mph86%30.27 "HgN/A
3:20 am25 °FLight snow. Passing clouds.10 mph86%30.27 "HgN/A
2:50 am25 °FSnow flurries. Overcast.9 mph86%30.27 "HgN/A
2:20 am23 °FSnow flurries. Passing clouds.10 mph93%30.27 "HgN/A
1:50 am25 °FLight snow. Passing clouds.12 mph86%30.27 "HgN/A
1:20 am23 °FLight snow. Passing clouds.14 mph93%30.24 "HgN/A
12:50 am23 °FLight snow. Passing clouds.13 mph86%30.24 "HgN/A
12:20 am23 °FLight snow. Partly cloudy.14 mph86%30.24 "HgN/A
11:50 pm
Mon, Jan 16
23 °FSnow flurries. Partly cloudy.14 mph86%30.24 "HgN/A
10:50 pm23 °FSnow flurries. Passing clouds.9 mph86%30.24 "HgN/A
10:20 pm23 °FLight snow. Passing clouds.14 mph86%30.24 "HgN/A
9:50 pm23 °FLight snow. Passing clouds.12 mph86%30.24 "HgN/A
9:20 pm23 °FPartly cloudy.12 mph80%30.24 "HgN/A
8:50 pm23 °FPassing clouds.9 mph80%30.24 "HgN/A
8:20 pm23 °FMostly cloudy.10 mph80%30.24 "HgN/A
7:50 pm25 °FLight snow. Mostly cloudy.10 mph74%30.21 "HgN/A
7:20 pm25 °FOvercast.10 mph74%30.21 "HgN/A
6:50 pm25 °FPassing clouds.9 mph80%30.21 "HgN/A
6:20 pm25 °FPartly cloudy.6 mph86%30.21 "HgN/A
5:50 pm25 °FMostly cloudy.7 mph86%30.21 "HgN/A
5:20 pm27 °FLight snow. Passing clouds.7 mph80%30.18 "HgN/A
4:50 pm27 °FLight snow. Cloudy.7 mph86%30.18 "Hg6 mi
4:20 pm27 °FSnow flurries. More clouds than sun.7 mph86%30.18 "Hg4 mi
3:50 pm28 °FSnow flurries. Overcast.9 mph80%30.18 "Hg1 mi
3:20 pm28 °FPartly sunny.8 mph74%30.15 "HgN/A
2:50 pm28 °FPartly sunny.9 mph69%30.15 "HgN/A
2:20 pm28 °FPartly sunny.9 mph69%30.15 "HgN/A
1:50 pm28 °FPartly sunny.8 mph69%30.15 "HgN/A
1:20 pm30 °FPartly sunny.7 mph69%30.15 "HgN/A
12:50 pm30 °FMostly cloudy.5 mph75%30.15 "HgN/A
12:20 pm30 °FOvercast.5 mph75%30.15 "HgN/A
11:50 am30 °FPartly sunny.6 mph75%30.15 "HgN/A
11:20 am27 °FScattered clouds.5 mph86%30.15 "HgN/A
10:50 am28 °FScattered clouds.2 mph86%30.15 "HgN/A
10:20 am25 °FPartly sunny.2 mph93%30.15 "HgN/A
9:50 am25 °FLight snow. Mostly cloudy.3 mph93%30.15 "Hg2 mi
9:20 am25 °FLight snow. Ice fog.5 mph93%30.15 "Hg1 mi
8:50 am23 °FSnow. Ice fog.3 mph93%30.15 "Hg1 mi
8:20 am21 °FLight snow. More clouds than sun.3 mph93%30.15 "Hg2 mi
Weather by CustomWeather, © 2017

See weather overviewHow to use our weather pages